Dewpoint
69 69 70 69 70 69 70 70 71 71 71 71 71 71 71 72 71 71 72 72 72 72 72 73 73 73 72 74 73 74 75 75 76 76 76 76 76 76 75 75 75 75 75 75 75 75 76 75 75 75 73 72 72 72 72 73 73 73 73 73 73 72 71 70 69 68 70 73 72 70 72 72 72 73 74 73 73 75 74 75 75 73 74 74 75
69 69 70 69 69 69 69 70 71 71 71 71 71 71 71 72 72 72 71 72 72 72 72 72 73 72 72 73 74 73 74 75 75 76 75 75 75 74 74 75 75 75 75 75 75 75 75 75 74 74 73 73 71 70 70 70 71 71 72 72 72 71 71 69 69 69 68 72 72 73 72 74 72 74 74 73 73 75 74 74 74 73 73 74 74
69 70 70 70 69 69 69 70 70 71 70 70 70 70 70 71 72 71 71 71 73 72 72 72 73 73 72 73 74 73 74 73 74 75 75 75 75 74 74 75 74 74 74 74 74 74 73 74 73 73 73 73 73 72 72 73 72 71 70 70 70 71 71 71 70 69 68 69 73 72 73 73 73 73 74 75 75 75 75 73 74 73 73 73 73
69 70 70 70 70 69 69 69 69 70 70 70 70 70 70 70 72 72 72 72 72 73 73 72 72 73 72 73 73 74 74 73 73 74 74 74 74 74 74 75 74 74 74 74 74 74 73 73 72 72 73 73 74 74 74 73 72 72 71 70 71 70 71 72 71 70 70 69 71 71 73 74 74 74 75 75 73 73 73 73 75 74 72 72 72
69 70 70 69 69 69 69 69 69 69 69 69 69 69 69 69 71 71 71 71 71 72 73 72 72 72 71 72 72 73 73 73 73 73 73 73 73 73 74 74 74 74 74 75 75 74 74 74 73 73 73 73 73 73 73 73 72 72 71 71 71 71 71 72 71 71 71 70 70 73 73 74 74 75 75 75 74 73 73 73 73 74 73 71 71
70 70 69 69 70 69 69 69 69 69 69 69 69 69 69 69 69 70 71 70 70 70 71 71 72 72 72 72 72 72 73 73 73 73 72 73 73 73 73 73 73 74 74 74 74 75 74 73 73 73 72 72 73 73 73 72 72 72 71 70 70 70 72 72 72 71 71 71 71 70 72 72 73 73 74 74 73 73 72 72 73 73 73 71 70
70 70 70 69 70 69 69 69 69 69 69 69 69 69 69 69 68 68 70 70 69 69 69 71 72 71 71 71 71 72 72 72 73 73 72 72 72 73 72 73 73 73 74 74 74 74 73 73 73 73 73 72 72 72 72 72 72 72 72 71 70 70 71 71 72 71 71 71 71 71 71 71 71 72 73 73 73 72 71 71 71 71 73 73 73
70 70 70 70 70 70 70 69 69 69 69 70 70 69 69 69 69 69 69 69 68 68 68 68 69 70 71 70 71 72 72 72 72 73 72 72 72 72 72 72 72 73 74 74 74 73 73 73 72 73 73 73 72 72 72 73 72 71 72 71 71 71 71 71 71 71 71 70 70 70 70 70 71 71 72 72 72 71 71 71 71 71 72 72 72
70 70 70 70 70 70 70 70 70 70 71 70 70 69 69 69 69 69 69 69 68 68 68 67 68 69 70 70 70 70 71 71 71 71 72 72 72 71 71 71 72 72 73 73 73 73 73 72 72 72 73 74 74 74 73 72 71 71 72 72 71 71 71 70 70 70 70 70 70 70 69 69 70 70 70 71 71 72 71 70 70 70 70 72 72
71 71 70 70 71 71 70 71 70 70 70 70 70 70 69 69 68 68 68 68 68 69 69 68 67 67 68 69 69 69 69 70 72 73 73 72 72 71 71 72 72 73 73 73 73 72 72 72 72 74 74 75 75 76 76 75 75 73 72 72 72 72 71 71 70 70 70 69 70 70 69 69 69 70 70 71 71 71 71 70 70 70 71 71 71
70 70 70 70 70 71 71 71 71 70 70 70 70 70 70 69 69 69 68 67 68 69 69 67 67 67 67 67 68 68 68 69 72 69 70 73 73 72 71 72 73 73 72 73 72 73 72 72 72 73 74 76 75 75 75 75 75 75 75 74 74 72 71 71 70 70 70 69 69 69 69 69 71 70 70 71 72 71 70 69 70 69 69 68 68
69 69 69 69 69 69 70 70 71 71 70 70 70 70 70 70 70 69 68 68 68 68 69 68 68 68 68 67 67 68 69 71 67 67 68 69 73 73 72 72 73 72 72 71 72 73 73 72 73 73 73 73 73 73 75 76 75 75 75 74 74 74 74 73 72 70 70 69 69 69 69 69 70 70 70 69 69 68 68 70 69 68 68 67 67
69 68 68 69 70 69 69 69 70 70 70 71 71 71 70 70 69 69 69 69 69 68 68 68 68 68 68 68 67 68 68 69 65 66 67 67 69 75 73 72 72 73 72 72 72 72 72 71 71 73 72 73 75 75 76 76 76 75 75 75 74 74 71 71 73 73 72 71 70 70 70 70 69 70 69 68 69 68 67 68 68 68 67 67 66
69 68 69 69 69 69 69 70 70 70 70 70 70 70 70 70 70 70 70 70 69 69 69 68 69 69 69 69 69 69 69 70 66 67 67 67 68 72 75 74 73 71 70 69 69 69 69 69 70 71 72 72 73 73 74 74 74 74 74 74 73 73 72 70 70 71 72 72 70 69 69 69 68 66 65 66 68 66 67 68 67 67 66 65 57
69 69 69 69 69 69 69 70 70 69 69 70 70 70 70 70 70 70 70 70 69 69 69 69 69 70 69 69 68 68 68 67 67 67 66 65 68 74 74 73 73 72 72 71 70 70 69 69 70 71 71 71 71 72 73 74 73 73 73 72 68 67 66 64 63 66 68 68 68 67 63 64 63 63 63 64 64 66 66 65 65 66 64 58 59
68 69 69 69 69 69 70 70 70 69 69 69 69 69 70 70 70 70 71 71 70 71 71 71 70 70 70 71 71 70 66 61 63 64 64 65 70 73 73 73 73 73 71 71 71 71 70 70 70 70 70 70 71 71 72 74 73 72 72 70 67 66 64 62 62 65 65 63 63 61 60 61 61 62 61 62 64 63 66 61 63 64 61 60 56
68 69 69 69 70 70 70 70 69 69 70 69 69 69 69 69 69 71 71 70 70 70 70 70 71 71 72 72 71 69 67 62 59 60 62 63 69 72 72 72 73 73 72 72 71 71 71 71 70 70 70 70 69 63 65 73 72 71 69 69 68 66 63 61 59 58 58 58 58 59 59 59 59 58 57 57 59 62 62 60 57 60 63 60 53
68 68 69 69 70 70 70 69 69 69 69 69 69 69 70 70 69 71 70 70 69 69 69 69 69 71 72 71 70 68 65 62 58 58 60 62 69 72 72 73 72 73 71 71 71 71 71 73 73 71 71 69 62 61 64 71 70 69 69 68 67 63 61 59 59 60 61 60 59 60 60 60 60 60 58 58 58 59 56 55 55 60 61 61 55
68 68 68 69 70 70 70 70 69 69 69 69 69 69 69 69 69 70 70 69 68 69 70 68 69 69 70 70 71 67 64 63 58 57 58 61 68 69 71 72 71 71 71 70 69 69 69 70 71 71 69 65 58 60 63 70 70 69 69 68 67 63 62 60 61 63 60 58 60 59 60 61 61 61 60 61 61 60 57 55 54 57 58 58 57
68 68 68 69 70 70 70 70 70 70 69 69 69 70 70 70 70 69 69 68 69 69 70 68 68 68 68 67 67 65 64 62 62 55 56 59 64 70 70 71 70 71 71 70 69 68 67 66 65 61 60 58 57 57 59 63 69 69 68 68 67 63 62 63 64 62 61 61 60 61 61 62 61 62 62 62 62 63 61 59 58 55 54 54 54
68 68 68 68 69 69 70 70 70 70 69 70 70 70 70 70 69 69 68 68 69 68 68 68 68 66 65 65 64 63 63 62 60 54 54 56 60 68 69 71 71 71 71 71 69 67 66 65 63 61 57 56 56 56 57 59 65 69 70 69 69 65 64 65 63 62 61 60 61 60 60 61 61 62 63 63 63 62 63 61 62 59 55 52 51
68 68 68 68 68 69 69 70 70 70 70 70 70 70 70 70 69 69 69 68 68 68 68 68 65 63 63 64 64 64 65 64 61 56 54 53 55 61 69 70 71 71 69 69 69 67 65 64 64 62 56 55 55 54 55 58 62 69 68 60 59 61 66 65 62 61 61 60 60 60 59 59 60 61 61 61 61 60 57 57 60 60 56 55 54
68 68 68 67 68 68 69 70 70 69 69 70 69 69 69 69 68 68 68 67 67 67 67 64 63 62 61 61 61 62 62 63 62 61 56 53 53 57 59 65 62 70 71 69 68 65 65 64 65 60 53 52 53 54 56 59 63 61 54 58 60 62 65 63 63 61 60 59 58 58 59 60 60 60 60 58 57 57 55 56 57 58 57 55 54
68 68 68 68 68 68 69 69 68 68 69 68 67 67 67 67 67 67 67 67 66 66 64 63 62 61 60 60 60 60 61 62 62 61 60 54 53 53 54 56 62 68 68 66 65 64 64 63 60 52 51 49 52 54 56 61 60 54 56 59 61 64 65 63 61 61 60 59 59 59 59 60 58 58 58 58 57 57 55 52 52 51 51 51 53
66 66 65 66 66 66 66 66 66 66 67 68 67 66 66 66 66 66 67 66 66 64 62 62 61 60 59 59 59 59 60 60 61 63 62 60 55 54 56 57 57 59 65 65 65 63 57 52 51 52 53 53 55 58 59 59 56 57 58 61 66 64 63 62 61 60 59 59 58 57 57 57 57 59 60 60 59 57 56 54 53 51 51 51 51
64 64 64 64 64 64 62 62 62 63 64 65 66 65 65 65 64 64 65 65 65 63 62 61 60 59 59 58 59 59 60 60 60 61 62 62 61 57 58 59 63 62 63 61 60 56 55 54 55 56 59 62 65 65 65 64 61 61 62 64 64 63 62 60 59 58 58 58 59 57 58 60 59 60 60 60 59 58 56 55 54 53 52 50 50
64 63 63 62 62 61 60 59 59 60 60 61 62 62 63 64 63 64 63 62 62 62 62 61 60 59 59 59 59 59 59 59 59 60 60 60 60 62 62 63 63 63 63 62 62 62 63 63 62 60 59 61 64 64 64 64 64 63 62 61 61 61 62 61 59 58 59 58 58 58 59 60 61 60 59 59 59 59 58 56 54 53 52 51 51
62 62 62 61 61 60 60 61 57 55 55 55 56 59 60 60 59 60 61 62 62 62 62 61 60 60 59 59 59 58 58 58 57 57 58 59 59 60 61 61 61 62 62 62 63 64 64 63 62 63 62 62 62 62 62 63 63 62 61 61 61 61 61 61 60 60 60 59 59 60 60 60 58 57 56 55 55 56 56 54 53 51 51 51 50
62 61 61 60 60 60 58 58 57 55 54 53 51 50 51 56 59 58 57 58 62 61 61 61 60 60 60 59 58 58 58 57 55 46 51 45 53 59 60 60 61 62 63 61 64 63 62 62 61 60 60 60 60 60 60 60 60 60 59 60 62 61 61 59 59 59 60 60 59 60 58 56 55 55 55 54 55 54 55 54 53 51 52 51 48
61 61 60 60 59 59 59 58 58 58 57 57 55 53 50 45 49 56 56 55 52 51 56 60 60 59 55 53 55 58 57 55 45 42 41 41 42 43 44 42 45 55 56 57 62 61 60 59 59 59 58 58 59 59 59 58 58 58 59 60 60 59 60 59 59 58 60 60 60 57 55 55 53 53 53 52 53 53 54 53 52 52 51 48 47
61 60 60 59 59 58 58 57 58 58 58 58 58 57 55 52 43 44 49 49 47 44 45 47 51 55 59 53 50 47 46 43 40 40 40 40 40 41 41 41 42 44 48 62 61 60 60 59 59 59 59 58 58 59 59 59 58 58 58 59 60 60 59 58 57 59 58 58 57 56 55 54 53 53 52 52 51 51 51 52 52 52 50 48 46
60 60 60 59 59 58 57 58 57 57 57 57 57 57 56 55 53 45 42 44 44 41 41 42 43 45 49 52 54 50 45 41 40 40 40 40 40 40 41 42 42 43 47 54 62 61 60 59 59 58 58 58 59 61 59 59 59 58 57 58 58 58 57 57 57 57 57 56 55 55 55 54 54 53 53 51 51 50 50 50 50 49 49 47 46
60 61 61 60 60 59 58 58 58 58 57 57 57 57 56 55 53 52 50 43 41 41 40 40 40 40 40 40 41 45 42 40 40 40 40 39 40 42 43 42 42 42 51 59 60 60 60 60 59 59 59 59 60 60 60 59 58 58 58 58 57 57 56 57 57 57 56 55 55 54 55 55 54 53 52 51 50 49 49 49 49 50 49 47 46
61 61 60 60 60 59 59 59 58 58 58 58 57 57 56 55 53 53 52 51 50 47 44 41 40 40 38 38 39 39 39 39 40 40 40 41 40 41 44 50 44 45 53 60 60 60 60 60 60 60 60 60 60 61 61 60 59 59 58 57 57 56 57 58 58 56 56 55 55 54 54 53 52 50 49 49 49 49 49 49 48 48 47 46 45
63 63 63 62 60 60 60 59 59 59 60 60 59 58 58 58 58 56 54 53 51 49 50 51 45 40 44 42 38 38 39 39 39 39 39 40 40 41 46 59 60 59 59 59 60 60 60 60 60 60 61 61 61 61 61 61 60 59 58 56 56 55 56 56 55 56 55 54 54 53 52 52 51 50 50 49 49 48 48 48 47 47 46 45 44
62 62 62 62 61 61 60 60 60 60 59 59 60 61 62 61 59 59 57 56 53 52 52 51 51 46 40 38 38 38 38 38 38 38 39 39 39 42 59 57 58 59 59 60 61 61 60 59 59 59 60 61 62 61 60 60 60 58 57 56 55 55 55 55 55 54 54 53 53 53 52 52 51 50 49 49 49 48 48 46 46 45 45 44 44
61 61 61 60 60 60 60 60 61 63 64 63 63 62 63 62 61 58 58 57 55 53 50 50 51 53 53 52 45 38 38 39 39 39 39 40 40 54 58 59 59 59 60 60 59 58 58 58 58 58 59 59 59 59 59 58 58 58 57 56 56 55 54 54 54 55 54 53 53 53 52 51 50 50 49 47 48 48 47 47 46 46 46 45 45
59 60 60 60 59 59 60 61 63 64 65 63 63 63 63 63 62 61 60 59 56 53 51 54 54 50 50 52 56 55 51 44 43 46 47 49 53 56 58 61 61 59 59 58 58 58 58 57 58 57 57 57 57 57 57 57 57 56 55 56 56 56 55 56 56 55 55 52 51 52 51 50 50 49 49 48 47 47 48 47 45 45 47 46 44
60 61 61 60 59 59 60 62 62 62 62 61 62 63 63 63 62 61 59 58 56 55 55 54 54 52 51 52 55 57 55 53 52 52 54 55 56 56 59 60 60 60 60 60 60 58 57 57 57 57 57 56 56 56 56 55 55 55 56 56 56 56 54 53 54 54 52 52 51 50 50 49 48 48 49 48 47 47 45 45 44 43 43 44 44
60 61 62 62 62 63 65 64 62 62 63 60 61 63 65 64 62 60 59 59 57 57 54 55 54 54 54 55 56 54 52 53 54 55 57 56 56 57 59 60 59 59 58 57 56 57 57 56 56 56 56 56 56 55 55 55 55 55 56 55 54 53 54 54 53 52 51 50 49 49 48 48 48 48 48 48 47 46 46 45 45 45 45 44 43
61 63 63 61 61 62 62 62 60 60 60 61 62 63 63 63 62 61 60 60 58 59 59 58 56 56 55 54 50 50 55 54 57 58 58 59 59 57 56 58 58 58 57 57 56 56 56 55 56 56 56 56 55 55 55 55 55 55 54 54 54 53 52 52 51 51 50 49 48 48 48 48 48 47 46 47 48 47 47 47 46 46 44 42 40
59 60 61 62 62 62 61 61 60 61 60 61 60 60 62 63 61 60 61 60 60 61 60 59 59 58 53 48 45 46 54 56 56 57 57 58 58 59 57 57 58 58 57 57 57 56 56 56 55 55 55 55 55 55 54 54 54 54 54 53 53 52 51 50 50 50 49 48 48 48 48 48 49 48 48 47 46 45 44 44 44 43 41 40 40
60 60 61 61 60 60 59 57 58 56 57 57 58 60 61 59 60 61 61 60 61 60 60 59 59 58 54 48 48 49 53 55 58 57 57 57 57 57 57 57 57 58 58 57 56 56 55 54 53 52 53 53 53 53 53 53 54 53 52 52 52 51 50 49 49 49 49 49 50 51 50 49 48 46 46 46 45 45 44 44 42 41 41 41 41
58 59 60 58 58 56 57 56 56 57 57 58 57 57 58 56 57 57 57 57 57 57 57 58 57 55 53 50 50 52 53 54 56 57 58 57 57 56 56 56 56 56 57 57 55 53 52 51 51 50 51 50 51 51 50 51 51 52 51 51 50 50 49 49 49 50 49 48 48 47 46 47 47 46 46 45 44 43 42 42 41 41 40 40 40
53 54 53 53 54 53 53 56 54 54 55 54 53 54 56 54 54 54 54 54 56 54 56 57 56 54 54 52 53 53 53 54 57 57 57 56 55 55 55 55 55 55 54 53 51 52 51 50 50 50 50 49 49 49 49 50 51 50 49 50 49 48 49 49 48 48 48 48 46 46 45 45 45 45 45 45 45 43 41 42 41 41 41 41 40
53 54 53 52 52 53 53 52 54 52 52 51 51 50 51 51 53 54 54 54 54 54 54 55 55 54 54 53 53 53 53 54 55 56 55 55 54 54 54 53 53 52 51 51 51 51 51 50 50 49 48 48 47 47 47 49 48 47 47 47 47 46 46 46 46 46 46 46 45 45 45 45 45 46 45 44 43 43 42 42 42 41 41 41 41
53 54 53 53 52 53 52 52 51 51 51 51 51 50 51 52 53 54 56 55 54 54 53 54 55 55 54 54 54 54 54 55 56 55 54 54 54 53 53 53 52 53 54 53 52 52 51 51 50 48 47 46 46 46 45 44 44 44 45 44 44 45 46 48 49 47 47 47 47 46 47 47 48 47 45 44 43 42 42 41 41 41 42 42 42
51 52 51 52 51 51 52 52 53 52 51 51 51 51 51 51 51 51 51 51 52 52 53 53 53 54 55 55 55 55 55 55 55 55 54 53 53 53 53 53 53 52 52 52 52 52 51 49 48 47 46 46 45 44 44 43 43 43 43 43 44 45 44 43 46 46 47 47 47 47 46 45 43 43 42 42 42 41 41 41 42 42 43 42 42
51 51 51 51 50 50 50 50 51 49 50 51 50 50 50 50 50 50 51 51 51 52 52 53 54 54 55 55 55 55 54 54 54 53 53 53 52 52 52 52 52 51 50 50 49 49 48 47 47 45 44 44 45 43 43 42 41 42 42 42 42 40 39 40 42 45 42 45 44 44 44 44 44 44 44 44 43 43 43 43 43 43 42 43 42
52 53 52 51 50 50 50 50 49 49 50 49 50 50 50 51 51 51 51 51 51 52 52 52 53 53 54 54 54 53 53 53 52 52 51 51 50 50 49 48 47 47 46 45 45 45 46 45 45 44 44 43 43 41 40 40 40 40 40 40 39 38 38 39 40 41 43 44 44 44 44 44 44 44 44 44 44 44 44 43 44 43 42 42 42
52 51 50 50 49 49 49 48 48 48 49 49 49 49 50 49 50 50 50 51 51 51 51 51 52 52 52 52 52 52 51 51 50 50 50 49 49 48 47 46 46 46 45 45 45 45 45 45 43 43 42 41 39 38 39 38 39 39 38 37 36 35 36 38 42 37 39 41 45 45 45 45 45 45 45 44 44 44 44 43 43 42 41 40 41